Torna al catalogo

FENGYUN 1C DEB

AttivoPO
NORAD 31426·DEBRIS·🇨🇳 China

Lanciato May 10, 1999 da Taiyuan Satellite Launch Center

Loading…

Prossimi Passaggi (prossime 24 ore)

TLE

AggiornatoSource: Space-Track

Epoca: Sep 13, 2026, 16:17 UTC

1 31426U 99025BTN 26256.67877422  .00002992  00000-0  15672-2 0  9990
2 31426  98.6047  39.2912 0321540 147.1463 230.3749 13.91596370973954

Traccia FENGYUN 1C DEB in tempo reale con AllMySat

Download on the App Store